Appleton, MN

12:08 PM CDT on April 27, 2017 (GMT -0500)
Appleton Municipal

Weather History for KAQP - November, 2012

Change the Weather History Date:

Tuesday, November 6, 2012

  Actual Average Record
Temperature  
Mean Temperature 42 °F -  
Max Temperature 46 °F 42 °F 71 °F (2016)
Min Temperature 37 °F 25 °F 3 °F (2003)
Degree Days  
Heating Degree Days 24    
Moisture  
Dew Point 36 °F    
Average Humidity 78    
Maximum Humidity 93    
Minimum Humidity 66    
Precipitation  
Precipitation 0.06 in - - ()
Sea Level Pressure  
Sea Level Pressure 29.89 in    
Wind  
Wind Speed 13 mph (NW)    
Max Wind Speed 28 mph    
Max Gust Speed 36 mph    
Visibility 9 miles    
Events Rain    
Averages and records for this station are not official NWS values.
T = Trace of Precipitation, MM = Missing Value Source: NWS Daily Summary

Daily Weather History Graph

Daily Weather History Graph

Search for Another Location

Airport or City:

Trip Planner

Search our weather history database for the weather conditions in past years. The results will help you decide how hot, cold, wet, or windy it might be!

Date:

Astronomy

Nov. 06, 2012 Rise Set
Actual Time 7:10 AM CST 5:04 PM CST
Civil Twilight 6:39 AM CST 5:35 PM CST
Nautical Twilight 6:04 AM CST 6:10 PM CST
Astronomical Twilight 5:29 AM CST 6:44 PM CST
Moon 11:47 PM CST (11/6) 1:00 PM CST (11/6)
Length of Visible Light 10h 55m
Length of Day
9h 53m
Waning Gibbous, 53% of the Moon is Illuminated
Nov 6
Waning Gibbous
Nov 6
Last Quarter
Nov 13
New
Nov 20
First Quarter
Nov 28
Full

Hourly Weather History & Observations

Time (CST) Temp. Windchill Dew Point Humidity Pressure Visibility Wind Dir Wind Speed Gust Speed Precip Events Conditions
12:13 AM 37.4 °F 31.4 °F 35.6 °F 93% 29.83 in 5.0 mi South 8.1 mph - N/A Rain Light Rain
12:33 AM 37.4 °F 30.8 °F 35.6 °F 93% 29.81 in 4.0 mi SSE 9.2 mph - 0.01 in Rain Light Rain
12:54 AM 37.4 °F 30.3 °F 35.6 °F 93% 29.82 in 7.0 mi South 10.4 mph - 0.01 in   Overcast
1:13 AM 37.4 °F 30.8 °F 35.6 °F 93% 29.81 in 5.0 mi South 9.2 mph - N/A   Overcast
1:33 AM 39.2 °F 33.0 °F 37.4 °F 93% 29.81 in 5.0 mi South 9.2 mph - N/A   Overcast
1:53 AM 39.2 °F 33.0 °F 37.4 °F 93% 29.80 in 4.0 mi SSW 9.2 mph - 0.02 in Rain Rain
2:13 AM 39.2 °F 33.0 °F 37.4 °F 93% 29.79 in 4.0 mi SSW 9.2 mph - 0.03 in Rain Rain
2:33 AM 39.2 °F 33.0 °F 37.4 °F 93% 29.78 in 5.0 mi SSW 9.2 mph - 0.03 in Rain Light Rain
2:53 AM 39.2 °F 33.0 °F 37.4 °F 93% 29.78 in 7.0 mi SSW 9.2 mph - 0.03 in   Overcast
3:13 AM 39.2 °F 33.0 °F 37.4 °F 93% 29.78 in 7.0 mi WSW 9.2 mph - N/A   Overcast
3:34 AM 41.0 °F 35.2 °F 39.2 °F 93% 29.78 in 7.0 mi West 9.2 mph - N/A   Overcast
3:53 AM 42.8 °F 35.8 °F 39.2 °F 87% 29.79 in 10.0 mi WNW 13.8 mph - N/A   Overcast
4:14 AM 41.0 °F 33.9 °F 37.4 °F 87% 29.80 in 10.0 mi WNW 12.7 mph - N/A   Scattered Clouds
4:34 AM 39.2 °F 31.6 °F 37.4 °F 93% 29.80 in 10.0 mi NW 12.7 mph - N/A   Clear
4:54 AM 39.2 °F 32.0 °F 35.6 °F 87% 29.80 in 10.0 mi NW 11.5 mph - N/A   Clear
5:13 AM 39.2 °F 31.6 °F 35.6 °F 87% 29.81 in 10.0 mi WNW 12.7 mph 19.6 mph N/A   Clear
5:33 AM 39.2 °F 30.8 °F 35.6 °F 87% 29.81 in 10.0 mi WNW 15.0 mph - N/A   Clear
5:53 AM 39.2 °F 31.6 °F 33.8 °F 81% 29.82 in 10.0 mi WNW 12.7 mph - N/A   Clear
6:13 AM 37.4 °F 30.3 °F 33.8 °F 87% 29.82 in 10.0 mi WNW 10.4 mph - N/A   Clear
6:33 AM 39.2 °F 31.6 °F 33.8 °F 81% 29.83 in 10.0 mi NW 12.7 mph 18.4 mph N/A   Clear
6:53 AM 39.2 °F 30.8 °F 33.8 °F 81% 29.83 in 10.0 mi NW 15.0 mph - N/A   Scattered Clouds
7:13 AM 39.2 °F 31.2 °F 33.8 °F 81% 29.84 in 10.0 mi NW 13.8 mph - N/A   Mostly Cloudy
7:33 AM 39.2 °F 31.6 °F 33.8 °F 81% 29.84 in 10.0 mi WNW 12.7 mph - N/A   Overcast
7:54 AM 39.2 °F 31.6 °F 33.8 °F 81% 29.85 in 10.0 mi WNW 12.7 mph 17.3 mph N/A   Overcast
8:14 AM 41.0 °F 34.3 °F 35.6 °F 81% 29.86 in 10.0 mi WNW 11.5 mph 18.4 mph N/A   Overcast
8:33 AM 41.0 °F 33.5 °F 35.6 °F 81% 29.86 in 10.0 mi NW 13.8 mph - N/A Rain Rain
8:53 AM 42.8 °F 35.8 °F 35.6 °F 76% 29.86 in 10.0 mi NW 13.8 mph 20.7 mph N/A Rain Light Rain
9:13 AM 42.8 °F 35.1 °F 35.6 °F 76% 29.86 in 10.0 mi NW 16.1 mph - N/A   Overcast
9:34 AM 42.8 °F 34.3 °F 35.6 °F 76% 29.86 in 10.0 mi NW 19.6 mph - N/A   Overcast
9:53 AM 42.8 °F 34.0 °F 35.6 °F 76% 29.87 in 10.0 mi NW 20.7 mph - N/A   Overcast
10:13 AM 44.6 °F 37.2 °F 35.6 °F 71% 29.87 in 10.0 mi NW 17.3 mph 28.8 mph N/A   Overcast
10:33 AM 44.6 °F 35.7 °F 35.6 °F 71% 29.87 in 10.0 mi NW 24.2 mph 32.2 mph N/A   Mostly Cloudy
10:53 AM 44.6 °F 35.7 °F 35.6 °F 71% 29.88 in 10.0 mi NW 24.2 mph 33.4 mph N/A   Overcast
11:13 AM 44.6 °F 36.1 °F 35.6 °F 71% 29.88 in 10.0 mi NW 21.9 mph 29.9 mph N/A   Overcast
11:33 AM 44.6 °F 35.7 °F 35.6 °F 71% 29.88 in 10.0 mi NW 24.2 mph 34.5 mph N/A   Overcast
11:53 AM 44.6 °F 35.3 °F 35.6 °F 71% 29.88 in 10.0 mi NW 26.5 mph 33.4 mph N/A   Overcast
12:13 PM 44.6 °F 35.7 °F 35.6 °F 71% 29.88 in 10.0 mi NW 24.2 mph 29.9 mph N/A   Overcast
12:34 PM 44.6 °F 35.1 °F 35.6 °F 71% 29.88 in 10.0 mi NW 27.6 mph 31.1 mph N/A   Overcast
12:53 PM 44.6 °F 35.7 °F 35.6 °F 71% 29.88 in 10.0 mi NW 24.2 mph 29.9 mph N/A   Overcast
1:14 PM 44.6 °F 35.9 °F 35.6 °F 71% 29.88 in 10.0 mi NW 23.0 mph 28.8 mph N/A   Overcast
1:33 PM 46.4 °F 38.3 °F 35.6 °F 66% 29.88 in 10.0 mi NW 23.0 mph 28.8 mph N/A   Overcast
1:53 PM 46.4 °F 38.3 °F 35.6 °F 66% 29.88 in 10.0 mi NW 23.0 mph 29.9 mph N/A   Overcast
2:13 PM 46.4 °F 38.1 °F 35.6 °F 66% 29.88 in 10.0 mi NW 24.2 mph 35.7 mph N/A   Overcast
2:33 PM 44.6 °F 36.4 °F 35.6 °F 71% 29.89 in 10.0 mi NW 20.7 mph 28.8 mph N/A   Overcast
2:53 PM 44.6 °F 37.2 °F 35.6 °F 71% 29.89 in 10.0 mi NW 17.3 mph - N/A   Overcast
3:13 PM 44.6 °F 36.6 °F 35.6 °F 71% 29.90 in 10.0 mi NW 19.6 mph 24.2 mph N/A   Overcast
3:33 PM 44.6 °F 36.9 °F 35.6 °F 71% 29.91 in 10.0 mi NW 18.4 mph 26.5 mph N/A   Overcast
3:54 PM 44.6 °F 36.9 °F 35.6 °F 71% 29.92 in 10.0 mi NW 18.4 mph 28.8 mph N/A   Overcast
4:13 PM 44.6 °F 36.9 °F 35.6 °F 71% 29.93 in 10.0 mi NNW 18.4 mph 24.2 mph N/A   Overcast
4:33 PM 44.6 °F 36.6 °F 37.4 °F 76% 29.94 in 10.0 mi NNW 19.6 mph 24.2 mph N/A Rain Light Rain
4:53 PM 44.6 °F 37.4 °F 35.6 °F 71% 29.94 in 10.0 mi NNW 16.1 mph 21.9 mph N/A   Overcast
5:33 PM 44.6 °F 38.1 °F 35.6 °F 71% 29.95 in 10.0 mi NNW 13.8 mph 20.7 mph N/A   Overcast
5:53 PM 44.6 °F 38.4 °F 35.6 °F 71% 29.96 in 10.0 mi NNW 12.7 mph - N/A   Overcast
6:13 PM 44.6 °F 38.1 °F 35.6 °F 71% 29.97 in 10.0 mi NNW 13.8 mph 17.3 mph N/A   Overcast
6:33 PM 44.6 °F 38.8 °F 35.6 °F 71% 29.98 in 10.0 mi NNW 11.5 mph - N/A   Overcast
6:53 PM 44.6 °F 37.2 °F 35.6 °F 71% 29.98 in 10.0 mi NNW 17.3 mph 21.9 mph N/A   Overcast
7:13 PM 44.6 °F 37.8 °F 35.6 °F 71% 29.99 in 10.0 mi NNW 15.0 mph 20.7 mph N/A   Overcast
7:33 PM 44.6 °F 38.4 °F 35.6 °F 71% 29.99 in 10.0 mi NNW 12.7 mph - N/A   Overcast
7:53 PM 44.6 °F 38.1 °F 35.6 °F 71% 30.00 in 10.0 mi NNW 13.8 mph 20.7 mph N/A   Overcast
8:13 PM 44.6 °F 38.8 °F 35.6 °F 71% 30.00 in 10.0 mi NNW 11.5 mph 18.4 mph N/A   Overcast
8:33 PM 42.8 °F 36.6 °F 35.6 °F 76% 30.00 in 10.0 mi NNW 11.5 mph - N/A   Overcast
8:53 PM 42.8 °F 35.4 °F 35.6 °F 76% 30.00 in 10.0 mi NW 15.0 mph 19.6 mph N/A   Overcast
9:13 PM 42.8 °F 35.4 °F 35.6 °F 76% 30.01 in 10.0 mi NNW 15.0 mph - N/A   Overcast
9:33 PM 42.8 °F 36.2 °F 35.6 °F 76% 30.02 in 10.0 mi NNW 12.7 mph - N/A   Overcast
9:53 PM 42.8 °F 36.6 °F 35.6 °F 76% 30.02 in 10.0 mi NNW 11.5 mph - N/A   Overcast
10:13 PM 42.8 °F 37.0 °F 35.6 °F 76% 30.02 in 10.0 mi NNW 10.4 mph - N/A   Overcast
10:33 PM 42.8 °F 36.2 °F 35.6 °F 76% 30.02 in 10.0 mi NNW 12.7 mph - N/A   Overcast
10:53 PM 42.8 °F 36.6 °F 35.6 °F 76% 30.02 in 10.0 mi NNW 11.5 mph 17.3 mph N/A   Overcast
11:13 PM 42.8 °F 35.8 °F 35.6 °F 76% 30.03 in 10.0 mi NNW 13.8 mph 17.3 mph N/A Rain Light Rain
11:33 PM 42.8 °F 37.5 °F 35.6 °F 76% 30.04 in 10.0 mi North 9.2 mph - N/A   Overcast
11:54 PM 41.0 °F 35.8 °F 35.6 °F 81% 30.04 in 10.0 mi NNW 8.1 mph - N/A   Overcast